Temp
72 74 77 75 59 58 55 57 65 61 61 62 66 63 58 57 54 47 59 63 65 63 66 64 65 65 65 65 65 65 65 65 66 66 65 65 65 65 65 65 64 65 65 66 66 66 65 65 64
76 86 76 69 55 51 55 60 60 62 62 64 62 59 58 53 60 56 55 63 65 65 65 62 64 64 64 64 64 64 64 64 64 64 64 64 64 64 63 63 63 64 64 64 65 64 64 63 63
76 84 67 61 57 53 53 61 62 60 63 61 57 58 58 54 59 57 61 63 64 63 63 62 63 63 63 63 63 63 63 63 63 63 63 63 62 62 62 62 62 62 63 63 63 63 63 62 62
77 73 71 56 56 58 59 61 62 59 58 60 61 54 57 60 60 61 62 63 62 62 61 61 62 62 62 61 61 61 61 61 61 61 61 61 61 60 60 60 60 61 61 61 61 61 61 61 61
73 70 58 56 59 59 60 65 63 58 58 58 58 52 51 57 62 61 60 63 59 59 58 58 60 60 60 60 60 60 60 59 59 59 59 59 59 59 59 59 59 59 59 60 60 60 60 60 60
65 68 55 53 58 59 58 65 64 61 61 60 57 55 52 60 58 59 61 59 60 58 58 57 57 57 57 57 57 57 57 58 57 58 57 57 58 58 58 58 57 58 58 59 59 59 59 59 59
62 60 56 58 59 56 60 66 61 61 60 57 58 54 50 54 59 59 59 59 59 58 57 56 55 56 56 55 55 55 55 55 56 56 56 56 57 57 57 57 56 57 58 58 58 58 58 58 58
67 64 58 56 56 55 63 63 64 63 60 64 61 53 48 54 59 58 58 57 55 56 55 55 54 54 54 51 53 53 54 55 56 56 55 55 54 55 54 54 55 57 57 57 57 57 57 57 56
70 56 54 59 57 58 63 59 59 61 56 56 60 56 56 60 58 54 52 52 52 55 54 54 53 54 54 54 53 54 56 56 55 53 52 50 47 47 49 52 54 55 55 56 56 56 56 55 53
63 55 59 65 65 59 61 60 58 54 55 54 56 55 59 57 54 51 49 49 49 50 51 52 52 52 53 59 53 51 54 49 48 47 45 45 45 46 50 49 52 52 53 53 53 53 53 51 47
63 57 62 63 62 63 62 59 61 54 53 57 55 54 55 54 52 51 51 51 51 51 51 52 53 51 50 50 48 47 47 46 46 45 43 43 45 43 42 42 43 43 49 45 46 46 46 46 46
57 61 62 60 58 60 58 60 59 57 54 61 63 62 56 53 52 52 52 53 52 52 51 52 51 51 50 48 47 47 46 45 44 44 44 41 39 40 40 40 41 41 42 42 43 43 44 45 45
57 59 60 58 56 56 60 56 57 57 61 59 61 60 56 54 53 54 55 55 53 51 51 50 50 50 51 50 48 47 46 44 44 43 43 41 39 38 39 40 40 40 41 41 41 42 42 42 43
58 59 59 56 57 56 53 54 52 56 61 58 60 57 55 55 55 54 54 54 53 53 51 51 51 51 51 49 48 46 45 44 44 42 42 42 39 37 38 39 39 39 40 41 41 41 41 41 41
57 53 54 55 56 54 54 49 52 56 59 59 56 55 56 56 57 55 56 54 53 53 52 50 50 51 49 49 47 46 45 46 43 42 43 41 41 38 37 36 37 37 39 40 41 40 40 39 40
53 51 46 53 54 51 49 46 56 60 56 56 55 53 55 56 57 57 57 55 53 52 51 51 55 50 48 48 46 47 45 43 42 41 41 41 40 39 36 35 35 37 38 39 38 38 37 36 36
48 43 48 48 55 51 48 47 50 55 55 53 54 55 56 55 56 57 57 55 54 53 51 49 49 48 48 48 46 45 45 42 42 41 39 39 39 38 35 34 35 36 36 36 37 36 35 33 34
44 44 49 46 50 51 46 45 53 54 54 53 53 56 56 56 56 57 57 55 54 52 51 49 49 48 47 46 45 43 42 42 41 39 38 39 37 37 34 33 34 35 34 35 35 34 35 33 32
51 48 47 47 48 45 45 48 53 58 54 52 54 55 56 56 57 57 56 54 52 51 50 50 47 47 45 43 41 41 40 41 41 39 40 38 36 36 34 32 33 33 33 33 35 34 32 30 32
47 45 44 44 47 43 44 45 53 57 59 60 55 55 55 55 55 56 54 53 52 51 50 48 48 46 46 44 44 43 41 40 39 39 39 37 35 34 35 32 32 32 32 32 33 32 29 30 32
45 44 43 42 43 43 40 40 47 56 55 59 60 59 59 57 55 55 54 53 51 50 49 49 47 47 46 46 43 41 40 39 38 37 35 35 35 34 33 32 31 31 31 31 32 30 29 28 32
42 48 46 43 39 33 39 28 47 55 54 52 55 56 55 56 57 57 54 52 50 50 48 48 48 46 46 44 41 39 37 36 36 35 35 35 35 34 33 32 32 31 31 31 31 33 28 31 30
42 46 45 41 36 34 32 29 41 50 48 50 48 51 53 55 55 55 55 53 52 50 48 48 46 45 43 42 42 39 38 36 36 35 35 34 34 34 33 32 32 31 31 31 31 30 29 29 30
48 44 42 39 36 23 34 35 36 46 50 49 48 46 50 52 53 53 54 52 50 48 45 45 44 42 42 41 40 39 37 35 33 33 32 31 32 31 31 32 31 31 30 30 31 30 29 30 30
43 38 25 24 19 22 34 31 38 49 53 53 52 50 49 50 50 50 49 50 49 45 43 44 42 39 39 38 38 38 37 36 32 32 30 30 29 28 28 29 29 29 30 30 31 29 30 30 29
37 37 29 21 23 27 31 26 41 53 51 54 55 52 50 49 50 49 48 49 48 45 43 44 39 37 37 36 35 36 36 33 31 31 28 28 27 27 29 29 29 30 30 30 30 29 30 31 30
36 30 38 24 16 21 31 38 51 51 51 51 51 50 49 47 47 47 47 46 45 43 43 42 39 36 36 35 33 33 33 32 30 30 29 28 28 30 29 29 29 30 30 30 29 29 28 29 29
35 42 29 26 19 17 28 32 38 42 48 50 48 48 49 48 46 46 45 45 44 43 43 41 39 36 35 34 32 32 31 30 30 29 28 27 28 28 28 28 28 29 29 29 29 29 28 28 29
30 28 30 33 31 24 21 30 47 50 49 50 50 51 49 46 45 45 44 44 43 42 41 39 38 35 34 33 31 31 30 30 29 29 28 27 29 28 27 27 27 28 27 29 29 29 28 27 28
35 36 33 27 26 27 25 29 48 49 49 48 50 49 48 49 46 44 43 42 40 39 39 38 37 36 35 33 32 31 31 30 28 28 27 27 27 27 27 27 27 26 26 27 28 27 27 27 27
MSLP
1011.49 1011.19 1011.12 1010.56 1010.98 1010.11 1009.98 1010.54 1010.76 1011.92 1012.45 1013.59 1013.92 1014.64 1015.69 1016.95 1018.28 1020.54 1021.41 1021.94 1022.16 1022.52 1022.61 1023.22 1023.37 1023.54 1023.44 1023.47 1023.44 1023.33 1023.15 1022.98 1022.77 1022.50 1022.22 1021.93 1021.70 1021.44 1021.28 1021.01 1020.62 1020.15 1019.72 1019.33 1018.91 1018.51 1018.15 1017.77 1017.44
1011.12 1010.41 1010.62 1010.43 1010.52 1010.15 1009.90 1010.54 1011.47 1012.57 1013.48 1014.31 1015.12 1015.59 1016.09 1017.97 1019.07 1020.64 1021.56 1021.84 1021.98 1022.39 1022.64 1023.27 1023.49 1023.56 1023.50 1023.50 1023.47 1023.41 1023.31 1023.13 1022.96 1022.75 1022.49 1022.18 1021.90 1021.77 1021.58 1021.31 1020.99 1020.58 1020.06 1019.52 1018.82 1018.50 1018.01 1017.58 1017.22
1011.41 1010.61 1010.85 1010.24 1010.17 1010.28 1010.57 1011.18 1011.96 1013.49 1014.19 1014.86 1015.74 1016.43 1017.01 1018.54 1019.57 1020.61 1021.20 1021.69 1022.09 1022.46 1022.75 1023.47 1023.51 1023.54 1023.52 1023.53 1023.56 1023.55 1023.45 1023.33 1023.17 1022.89 1022.52 1022.22 1021.98 1021.74 1021.49 1021.17 1020.81 1020.45 1019.94 1019.54 1019.22 1018.77 1018.36 1017.81 1017.35
1010.79 1010.70 1010.63 1010.45 1010.13 1010.56 1010.95 1011.47 1012.44 1013.84 1014.80 1015.10 1015.65 1017.03 1018.19 1019.08 1019.39 1020.29 1021.31 1021.64 1021.98 1022.42 1022.96 1023.39 1023.48 1023.56 1023.55 1023.68 1023.69 1023.70 1023.58 1023.44 1023.25 1022.97 1022.67 1022.43 1022.27 1022.08 1021.85 1021.55 1021.20 1020.87 1020.39 1020.08 1019.56 1019.12 1018.59 1018.21 1017.68
1010.90 1010.56 1010.51 1010.23 1010.05 1010.64 1011.49 1011.67 1012.58 1014.02 1014.84 1015.41 1015.84 1017.11 1018.64 1019.55 1019.88 1020.71 1021.32 1021.54 1022.05 1022.43 1023.00 1023.49 1023.62 1023.67 1023.70 1023.85 1023.91 1023.86 1023.72 1023.59 1023.45 1023.26 1023.09 1022.95 1022.70 1022.57 1022.25 1021.94 1021.67 1021.24 1020.89 1020.47 1019.82 1019.28 1018.83 1018.10 1017.44
1010.82 1010.39 1010.34 1010.11 1009.90 1010.87 1011.68 1011.99 1012.89 1013.78 1014.41 1015.18 1016.04 1017.06 1018.54 1019.40 1020.31 1020.85 1021.28 1021.56 1021.85 1022.33 1022.83 1023.30 1023.68 1023.85 1024.08 1024.17 1024.10 1024.04 1023.99 1023.92 1023.79 1023.62 1023.50 1023.31 1023.07 1022.77 1022.45 1022.19 1021.95 1021.52 1021.02 1020.56 1019.99 1019.45 1018.69 1017.94 1017.38
1010.64 1010.45 1010.35 1010.13 1010.17 1010.97 1011.68 1012.21 1013.04 1013.57 1014.19 1015.01 1015.45 1016.79 1018.74 1019.76 1020.29 1020.72 1021.17 1021.47 1021.84 1022.41 1022.85 1023.07 1023.39 1023.94 1024.14 1024.23 1024.34 1024.35 1024.29 1024.07 1023.96 1023.81 1023.70 1023.47 1023.16 1022.89 1022.68 1022.29 1022.06 1021.59 1021.08 1020.50 1019.93 1019.19 1018.58 1017.77 1017.34
1010.52 1010.59 1010.40 1010.21 1010.37 1010.96 1011.52 1012.48 1012.93 1013.49 1014.14 1014.75 1015.53 1016.59 1018.10 1019.18 1020.02 1020.83 1021.28 1021.74 1022.24 1022.51 1022.70 1023.04 1023.42 1023.67 1023.84 1024.20 1024.39 1024.43 1024.30 1024.17 1024.00 1023.88 1023.81 1023.59 1023.42 1023.05 1022.84 1022.54 1022.13 1021.54 1021.05 1020.42 1019.80 1019.14 1018.46 1017.88 1017.44
1010.68 1010.67 1010.44 1010.09 1010.27 1010.99 1011.94 1012.85 1013.45 1013.80 1014.53 1015.04 1015.77 1016.73 1017.49 1018.48 1019.94 1020.95 1021.48 1021.93 1022.24 1022.51 1022.72 1023.15 1023.42 1023.54 1023.74 1023.80 1024.00 1024.08 1024.02 1023.96 1024.00 1024.05 1024.03 1023.91 1023.63 1023.31 1022.97 1022.66 1022.20 1021.66 1021.20 1020.53 1019.79 1019.28 1018.54 1018.13 1017.58
1010.89 1010.96 1010.58 1010.46 1010.39 1011.21 1012.22 1012.88 1013.61 1014.48 1014.74 1015.48 1016.12 1017.29 1017.95 1018.89 1020.00 1020.84 1021.31 1021.64 1022.03 1022.48 1022.93 1023.13 1023.36 1023.50 1023.58 1023.39 1023.66 1023.86 1023.94 1024.15 1024.15 1024.28 1024.37 1024.10 1023.69 1023.41 1023.12 1022.89 1022.32 1021.85 1021.34 1020.87 1020.33 1019.70 1018.97 1018.31 1017.61
1010.84 1010.96 1011.27 1011.41 1011.72 1012.05 1012.38 1013.21 1013.70 1014.41 1014.66 1014.66 1015.54 1016.80 1018.08 1019.00 1019.93 1020.48 1020.93 1021.07 1021.43 1022.15 1022.59 1022.82 1023.04 1023.32 1023.48 1023.69 1023.90 1024.07 1024.24 1024.38 1024.43 1024.46 1024.45 1024.20 1023.90 1023.69 1023.45 1023.01 1022.57 1022.08 1021.48 1021.25 1020.69 1019.99 1019.23 1018.47 1017.68
1011.33 1011.34 1011.90 1012.47 1012.94 1013.02 1013.01 1013.23 1013.55 1013.94 1013.99 1013.88 1014.30 1015.39 1017.32 1018.62 1019.22 1019.64 1019.97 1020.40 1021.08 1021.46 1021.84 1022.39 1022.85 1023.24 1023.53 1023.78 1024.05 1024.15 1024.39 1024.53 1024.62 1024.53 1024.55 1024.50 1024.35 1023.99 1023.61 1023.24 1022.74 1022.26 1021.85 1021.56 1020.88 1020.18 1019.34 1018.50 1017.77
1011.88 1011.93 1012.69 1013.45 1013.72 1013.81 1013.79 1013.72 1013.74 1013.46 1013.51 1013.90 1014.15 1014.99 1016.41 1017.63 1018.51 1019.03 1019.32 1019.68 1020.23 1020.94 1021.63 1022.39 1022.79 1023.11 1023.35 1023.71 1023.85 1024.01 1024.21 1024.49 1024.51 1024.58 1024.68 1024.66 1024.65 1024.36 1023.87 1023.41 1022.95 1022.57 1022.26 1021.71 1020.93 1020.23 1019.48 1018.62 1017.68
1012.31 1012.39 1012.95 1013.63 1013.97 1014.18 1014.41 1014.14 1014.09 1013.04 1013.13 1013.89 1014.37 1015.08 1016.02 1016.83 1017.50 1018.42 1018.84 1019.40 1020.01 1020.75 1021.45 1022.05 1022.58 1022.80 1023.13 1023.50 1023.66 1023.88 1024.11 1024.33 1024.46 1024.65 1024.73 1024.76 1024.77 1024.67 1024.24 1023.75 1023.25 1022.89 1022.56 1021.83 1021.19 1020.52 1019.71 1018.78 1017.92
1012.62 1012.87 1013.14 1013.42 1013.90 1014.28 1014.60 1014.26 1013.19 1012.75 1012.76 1013.46 1014.20 1014.74 1015.27 1016.04 1016.81 1017.34 1017.95 1018.60 1019.26 1020.21 1020.86 1021.43 1021.98 1022.40 1022.90 1023.27 1023.59 1023.92 1024.23 1024.31 1024.57 1024.67 1024.69 1024.79 1024.81 1024.76 1024.51 1024.07 1023.53 1023.17 1022.70 1022.08 1021.32 1020.76 1020.01 1019.16 1018.25
1012.89 1012.96 1012.95 1013.07 1013.80 1014.63 1014.85 1013.29 1012.30 1011.73 1012.68 1013.14 1013.60 1014.33 1014.65 1015.11 1015.64 1016.43 1017.04 1017.82 1018.73 1019.60 1020.42 1021.13 1021.53 1022.23 1022.76 1023.18 1023.63 1023.91 1024.28 1024.46 1024.58 1024.64 1024.73 1024.91 1024.96 1024.85 1024.68 1024.30 1023.84 1023.40 1022.97 1022.35 1021.65 1020.96 1020.13 1019.37 1018.42
1012.77 1012.61 1012.53 1013.03 1013.46 1014.31 1014.85 1013.32 1012.38 1012.04 1012.37 1012.86 1012.96 1013.34 1013.91 1014.41 1014.84 1015.46 1016.18 1017.09 1018.00 1018.89 1019.87 1020.68 1021.34 1021.93 1022.53 1022.95 1023.38 1023.75 1024.15 1024.42 1024.58 1024.78 1025.07 1025.17 1025.07 1024.93 1024.84 1024.55 1024.22 1023.73 1023.29 1022.68 1022.04 1021.41 1020.67 1019.64 1018.59
1012.06 1012.30 1012.13 1012.61 1013.57 1014.05 1014.43 1013.38 1012.38 1012.23 1012.17 1012.15 1012.35 1012.49 1012.80 1013.16 1013.85 1014.79 1015.57 1016.58 1017.56 1018.46 1019.30 1020.17 1020.90 1021.56 1022.10 1022.68 1023.19 1023.65 1024.05 1024.27 1024.47 1024.86 1025.20 1025.33 1025.40 1025.24 1024.99 1024.72 1024.43 1024.01 1023.67 1023.02 1022.38 1021.79 1021.10 1020.33 1019.58
1011.58 1011.92 1012.28 1012.88 1013.88 1014.30 1013.93 1012.91 1011.77 1011.16 1010.88 1010.90 1011.05 1011.43 1011.81 1012.30 1013.02 1014.06 1015.01 1016.13 1017.30 1018.17 1019.03 1019.85 1020.64 1021.23 1021.81 1022.46 1023.02 1023.42 1023.87 1024.05 1024.27 1024.69 1024.94 1025.28 1025.45 1025.34 1025.29 1025.06 1024.75 1024.35 1023.98 1023.34 1022.76 1022.12 1021.43 1020.55 1019.94
1011.91 1012.30 1012.69 1013.54 1014.11 1014.55 1013.76 1012.48 1010.86 1009.89 1009.07 1009.01 1009.65 1010.39 1010.73 1011.56 1012.29 1013.37 1014.51 1015.55 1016.50 1017.54 1018.58 1019.48 1020.28 1020.91 1021.48 1022.02 1022.42 1022.78 1023.25 1023.75 1024.12 1024.37 1024.67 1025.13 1025.30 1025.41 1025.30 1025.35 1025.02 1024.61 1024.24 1023.68 1023.18 1022.61 1022.19 1021.56 1020.89
1012.37 1012.65 1012.99 1013.74 1014.36 1014.51 1014.27 1012.17 1010.04 1008.11 1007.56 1007.67 1007.86 1008.42 1009.33 1010.10 1011.34 1012.44 1013.70 1014.90 1016.11 1017.03 1017.99 1018.88 1019.64 1020.41 1021.08 1021.60 1022.11 1022.82 1023.35 1023.84 1024.23 1024.48 1024.94 1025.10 1025.24 1025.45 1025.44 1025.46 1025.13 1024.82 1024.43 1024.04 1023.54 1023.03 1022.65 1021.81 1021.25
1013.15 1013.12 1013.58 1014.31 1014.92 1015.26 1014.55 1012.75 1009.75 1007.80 1007.26 1007.23 1007.41 1007.96 1008.48 1009.49 1010.46 1011.73 1013.07 1014.29 1015.37 1016.61 1017.60 1018.28 1019.14 1019.91 1020.69 1021.27 1021.97 1022.80 1023.33 1023.75 1024.33 1024.74 1025.04 1025.21 1025.26 1025.40 1025.50 1025.49 1025.24 1024.87 1024.59 1024.19 1023.71 1023.20 1022.78 1022.19 1021.31
1013.83 1013.98 1014.41 1015.18 1015.57 1015.58 1015.08 1014.21 1009.72 1007.72 1007.19 1007.23 1007.72 1008.06 1008.40 1008.95 1009.78 1011.00 1012.30 1013.70 1015.06 1016.17 1017.19 1018.18 1019.11 1019.97 1020.70 1021.33 1021.90 1022.35 1023.02 1023.55 1024.01 1024.55 1025.00 1025.35 1025.35 1025.48 1025.66 1025.62 1025.34 1025.12 1024.82 1024.38 1023.90 1023.46 1022.96 1022.43 1021.92
1014.54 1015.07 1015.44 1015.85 1016.50 1016.59 1014.77 1013.82 1009.87 1007.87 1006.93 1007.24 1007.73 1008.25 1008.67 1009.19 1009.69 1010.73 1011.97 1013.46 1014.68 1015.91 1017.22 1018.25 1019.19 1020.09 1020.81 1021.61 1022.09 1022.46 1023.10 1023.71 1024.26 1024.69 1025.22 1025.39 1025.52 1025.63 1025.87 1025.64 1025.58 1025.42 1025.01 1024.54 1024.00 1023.52 1023.11 1022.73 1022.24
1015.10 1015.66 1016.98 1017.49 1017.93 1016.81 1015.44 1014.37 1010.18 1007.80 1007.10 1006.97 1007.76 1008.45 1008.98 1009.51 1009.99 1010.75 1011.90 1013.20 1014.65 1015.89 1016.78 1017.89 1019.00 1020.10 1020.89 1021.62 1022.22 1022.67 1023.10 1023.66 1024.36 1024.73 1025.28 1025.60 1025.71 1025.86 1026.10 1025.87 1025.63 1025.57 1025.09 1024.69 1024.14 1023.75 1023.21 1022.87 1022.39
1015.57 1015.59 1016.60 1017.05 1017.96 1017.23 1016.22 1013.57 1009.06 1007.11 1006.68 1006.68 1007.35 1008.09 1009.03 1009.94 1010.49 1011.24 1012.10 1013.09 1014.37 1015.39 1016.56 1017.80 1019.07 1020.14 1020.87 1021.73 1022.16 1022.48 1023.12 1023.84 1024.54 1025.10 1025.29 1025.63 1025.97 1026.17 1026.04 1025.97 1025.61 1025.35 1025.08 1024.68 1024.19 1023.87 1023.37 1023.01 1022.55
1016.04 1016.14 1016.00 1017.23 1018.48 1017.44 1014.76 1011.63 1008.44 1006.72 1006.48 1006.82 1007.42 1008.26 1009.22 1010.16 1010.83 1011.50 1012.24 1013.13 1014.16 1015.38 1016.47 1017.48 1018.61 1019.92 1020.99 1021.68 1022.53 1023.09 1023.38 1023.86 1024.55 1025.21 1025.52 1025.66 1025.95 1026.00 1026.02 1025.87 1025.72 1025.45 1025.20 1024.76 1024.33 1024.08 1023.55 1023.22 1022.71
1015.81 1015.79 1016.58 1017.33 1017.89 1016.65 1013.71 1011.46 1008.96 1007.29 1006.81 1006.95 1007.49 1008.19 1009.08 1010.12 1011.06 1011.63 1012.40 1013.08 1014.02 1015.12 1016.34 1017.42 1018.35 1019.52 1020.61 1021.51 1022.17 1022.93 1023.62 1024.18 1024.69 1025.14 1025.58 1025.78 1025.92 1025.99 1026.07 1026.09 1025.75 1025.46 1025.28 1024.93 1024.38 1024.14 1023.78 1023.44 1022.86
1016.40 1016.09 1016.44 1016.62 1016.57 1015.92 1013.95 1010.78 1007.63 1007.13 1006.84 1007.05 1007.53 1008.10 1009.07 1010.07 1011.17 1012.00 1012.68 1013.33 1014.33 1015.18 1016.08 1017.34 1018.46 1019.19 1019.96 1020.91 1021.82 1022.69 1023.41 1024.15 1024.60 1025.01 1025.58 1025.79 1025.92 1026.06 1026.22 1026.09 1025.80 1025.76 1025.45 1025.02 1024.57 1024.33 1024.04 1023.69 1023.06
1015.24 1015.31 1015.50 1016.20 1016.32 1015.58 1014.08 1010.54 1007.93 1007.33 1007.17 1007.35 1007.94 1008.58 1009.05 1009.81 1010.90 1011.98 1012.84 1013.64 1014.30 1015.44 1016.41 1017.10 1018.18 1019.17 1019.78 1020.55 1021.46 1022.30 1023.04 1023.81 1024.49 1024.94 1025.43 1025.68 1026.03 1026.13 1026.21 1026.13 1026.05 1026.09 1025.72 1025.31 1024.99 1024.65 1024.32 1024.02 1023.43
Wind_Speed
8 8 5 3 3 2 5 5 6 5 4 4 10 7 8 8 5 2 5 7 7 7 6 9 8 7 8 9 10 10 11 12 14 15 17 18 19 20 20 21 22 23 24 24 24 24 24 24 24
8 3 2 4 3 5 1 7 7 7 8 9 6 2 2 5 7 10 8 6 8 7 7 8 7 7 8 9 9 10 12 13 14 15 16 17 18 19 20 20 21 22 23 24 25 25 26 26 26
6 4 1 3 5 5 3 6 7 9 8 6 5 3 3 5 9 10 10 9 9 6 10 7 7 7 8 8 9 11 12 13 14 16 16 18 19 20 22 23 24 24 24 25 25 25 25 26 26
2 2 4 2 9 5 5 3 17 10 2 2 6 7 5 6 7 10 10 9 8 7 11 7 8 7 7 8 9 10 12 13 14 15 17 18 19 20 21 22 22 22 23 23 24 24 25 24 25
2 4 5 6 8 5 3 1 9 10 8 7 4 6 5 3 11 11 9 8 8 8 9 7 7 6 7 7 8 9 11 12 14 16 16 16 17 18 18 19 20 22 22 22 23 24 24 25 26
2 3 5 6 4 5 1 5 7 9 9 10 5 7 6 12 9 9 8 8 8 7 7 8 7 6 7 7 7 9 10 11 12 13 15 15 15 16 17 18 18 21 22 23 23 23 25 25 26
4 4 8 8 6 4 6 6 8 8 8 8 0 5 5 10 9 9 8 8 8 7 6 5 7 7 5 5 5 7 8 9 10 12 14 14 14 15 17 18 19 21 22 23 24 25 25 25 26
3 4 10 5 4 1 8 8 6 8 6 6 4 5 6 12 11 8 7 7 7 6 6 5 4 6 5 6 4 1 4 7 9 12 15 14 15 16 17 18 18 21 23 24 25 26 26 27 26
2 3 5 9 3 3 9 8 2 6 7 1 6 5 3 18 13 8 6 6 6 6 5 5 3 3 3 4 5 5 2 5 9 10 14 10 5 6 10 17 20 22 23 25 26 27 28 27 25
5 4 7 7 5 2 10 8 7 2 4 4 6 8 8 15 12 10 9 8 8 7 5 5 4 3 2 2 3 1 2 3 4 5 6 5 6 6 12 13 19 20 22 23 25 26 26 21 11
5 6 6 5 9 8 8 8 9 6 8 9 12 12 11 11 12 12 10 9 9 8 6 7 6 5 3 2 2 1 2 3 3 5 5 5 6 5 4 4 5 6 14 8 12 12 9 14 12
3 3 3 4 5 4 3 1 7 11 4 6 11 16 15 14 15 14 13 10 10 10 9 8 7 5 4 0 1 2 3 2 3 3 6 4 3 5 5 4 6 6 6 10 10 8 12 14 15
4 3 4 6 3 3 6 5 9 9 11 4 5 16 18 15 14 12 10 9 10 8 8 8 6 6 5 3 2 2 2 3 2 3 5 4 4 5 5 6 5 5 7 9 9 10 12 13 15
4 4 5 3 4 2 3 5 4 9 12 9 6 11 12 15 15 11 10 9 9 9 9 8 7 5 5 3 3 2 3 2 3 3 3 5 4 5 5 6 6 6 8 9 9 10 11 11 13
2 3 6 8 6 2 4 7 15 11 3 10 11 9 11 13 13 14 12 10 10 7 9 9 8 7 6 5 4 3 3 1 3 2 4 6 5 5 6 5 5 5 8 10 9 10 11 11 12
3 1 3 5 8 4 3 7 7 11 10 11 12 11 11 13 14 13 12 10 11 9 10 8 8 7 7 5 4 3 3 1 2 2 4 6 6 6 6 5 5 6 7 8 9 10 10 11 11
4 4 7 5 8 6 7 8 2 4 10 10 10 11 12 12 13 13 12 12 12 10 10 9 8 8 7 5 4 4 4 1 2 3 4 6 6 6 5 5 5 7 7 6 8 9 10 12 12
6 5 5 3 6 6 6 16 15 7 9 11 11 11 13 14 15 12 12 11 10 10 10 9 8 8 8 5 4 3 4 3 3 3 4 5 4 6 5 5 6 6 6 7 8 11 10 10 12
3 4 5 4 3 2 9 16 17 12 11 14 13 11 10 13 11 12 11 11 10 10 10 10 9 8 6 4 4 3 4 3 3 4 4 5 5 5 6 4 5 6 6 8 10 8 13 11 13
2 4 5 3 4 3 6 16 19 18 15 15 13 13 11 8 11 13 13 12 13 12 11 10 10 8 7 5 4 2 3 3 4 3 4 5 5 5 6 6 5 6 6 7 9 9 8 7 12
4 5 4 2 4 4 6 9 5 9 8 12 11 9 15 12 15 16 17 15 13 13 12 11 10 9 7 6 5 4 4 2 2 2 3 3 5 5 5 6 5 6 5 6 8 6 11 10 11
5 4 3 2 2 4 1 8 6 9 7 5 7 7 8 10 11 16 17 17 16 13 10 10 9 9 8 8 6 6 4 4 2 3 2 2 4 4 5 6 6 5 4 6 7 8 4 8 12
2 3 4 1 2 3 2 1 9 4 4 1 4 2 7 9 10 15 18 17 14 12 11 9 8 8 7 7 7 5 4 4 3 3 2 2 3 4 5 6 6 6 4 6 7 7 6 4 7
9 5 3 2 1 2 7 7 6 4 3 4 3 1 2 7 8 10 12 13 12 10 8 8 9 8 8 7 6 7 8 6 4 3 3 2 2 3 6 5 5 6 5 6 7 6 7 7 8
3 5 3 5 3 7 4 1 10 10 8 4 9 8 5 6 7 9 12 14 13 13 10 10 10 8 8 8 6 6 7 7 7 4 3 3 2 3 4 5 5 4 5 6 7 6 7 8 8
7 7 7 8 5 3 3 7 10 8 1 6 7 7 8 8 6 8 9 11 12 13 11 12 9 8 9 8 8 7 8 4 5 4 3 3 2 3 3 4 5 6 6 6 6 4 6 8 6
5 4 1 6 1 3 6 8 10 5 7 6 8 8 8 8 8 8 8 9 9 10 13 12 11 9 9 8 7 6 6 7 6 6 4 3 4 1 3 4 5 6 6 6 6 5 6 7 6
1 2 5 3 2 6 5 2 7 2 4 5 5 7 7 7 8 8 8 8 8 9 10 10 11 12 10 9 8 7 7 7 6 6 5 4 4 3 4 4 5 5 6 6 6 5 5 7 6
3 2 1 2 4 5 1 7 8 8 5 6 5 7 9 9 8 7 7 7 7 8 10 10 11 12 12 11 8 8 7 7 6 6 5 4 4 3 4 4 5 5 6 7 6 7 7 8 8
1 6 7 7 6 4 4 9 2 6 5 3 6 4 4 8 8 8 7 8 8 8 8 10 11 12 11 12 10 10 10 8 7 6 5 5 4 4 3 4 5 5 6 8 7 8 7 8 9
Wind_Direction
284 223 226 273 289 185 256 134 106 103 92 54 14 36 73 43 9 143 110 108 120 110 124 92 68 56 49 43 38 31 26 23 23 23 23 22 21 18 13 9 6 3 360 356 354 351 349 346 341
304 242 280 270 257 256 328 99 142 132 75 82 80 78 93 80 83 119 122 144 122 117 90 79 80 62 52 45 37 31 27 24 22 22 23 21 19 16 12 8 5 1 359 356 354 349 347 344 340
269 255 274 211 227 269 52 123 145 91 112 144 103 357 16 94 111 140 113 134 125 124 103 99 87 68 56 46 36 29 26 23 21 21 19 18 16 12 8 5 3 359 357 353 349 346 343 342 339
297 249 276 273 262 73 45 147 110 118 107 165 97 119 74 337 123 114 137 147 124 122 110 105 94 79 64 46 38 29 25 23 21 18 16 15 13 9 4 2 359 354 352 347 345 342 340 336 333
227 261 241 220 267 93 65 120 121 152 156 180 178 138 99 126 96 124 136 148 128 126 130 107 103 86 70 53 40 31 27 24 19 17 14 9 8 3 359 355 351 351 346 342 343 340 337 337 335
264 232 264 254 199 95 108 130 146 181 157 143 175 142 116 132 137 149 146 143 137 123 119 138 125 103 73 54 39 30 26 22 18 14 10 5 358 357 352 350 346 345 344 343 341 336 337 338 335
230 248 267 315 333 125 171 154 175 194 151 155 157 175 103 150 157 143 149 135 123 125 142 156 147 126 123 94 50 31 22 17 15 10 7 1 353 352 351 348 345 341 342 342 340 340 337 337 333
315 262 270 283 286 213 140 159 182 198 171 104 173 221 168 168 142 144 142 138 123 152 162 160 139 179 150 152 113 45 14 12 10 10 6 358 354 350 345 345 337 342 343 342 340 339 336 336 334
285 285 250 253 174 104 121 175 280 340 111 168 140 57 39 139 134 145 150 147 158 175 170 139 160 153 161 186 151 233 31 11 20 17 4 354 332 346 339 341 342 344 343 345 341 339 337 336 332
207 210 272 13 61 119 149 200 158 147 204 184 161 98 124 137 152 166 178 177 181 180 165 168 166 155 184 260 122 299 68 24 31 37 10 338 339 348 346 340 341 342 340 343 338 335 334 333 326
214 244 5 56 32 1 151 200 153 176 220 203 195 163 165 157 170 182 191 190 185 162 173 172 169 162 211 94 339 56 52 20 23 29 24 339 345 344 335 325 334 331 338 343 333 329 327 325 325
277 38 10 26 36 335 170 146 214 191 227 358 196 172 163 176 186 192 195 190 167 167 170 168 172 173 184 343 177 80 74 16 22 17 27 351 345 341 338 333 332 333 343 333 333 324 326 326 325
231 132 58 65 63 302 8 266 247 233 229 131 287 137 169 179 190 200 193 191 164 164 161 162 173 180 162 201 116 102 79 77 354 32 23 6 348 340 330 330 333 336 348 327 326 328 328 326 325
10 30 108 149 171 158 228 248 74 245 232 161 176 159 175 187 193 190 196 188 161 159 160 163 174 177 153 190 106 94 77 25 44 33 11 20 353 344 341 328 331 340 340 323 326 333 331 327 326
117 251 182 188 185 190 208 254 231 222 188 194 179 201 187 192 193 197 192 184 162 169 160 165 173 172 161 167 155 114 81 38 49 26 12 31 359 349 338 323 333 338 331 325 331 331 328 328 323
221 206 238 98 141 131 204 264 196 205 187 212 190 196 204 199 199 192 186 179 161 166 163 162 177 164 166 168 149 131 113 73 63 26 32 25 359 355 344 331 332 334 331 329 336 334 329 332 325
222 254 202 180 186 123 200 275 151 335 171 214 226 207 207 204 198 191 183 176 166 168 161 164 166 165 162 158 144 137 114 81 72 49 43 4 8 360 346 332 334 333 333 335 334 337 338 335 332
203 217 239 243 179 207 221 257 269 225 219 222 226 227 207 205 200 187 180 168 167 167 163 163 165 166 158 154 160 161 152 183 135 86 64 24 5 3 344 347 335 342 333 331 337 336 339 337 331
350 340 335 95 29 251 237 259 267 261 218 222 217 221 230 207 178 178 174 163 165 167 165 169 165 170 154 158 163 183 190 173 134 101 90 60 13 12 345 351 339 339 333 329 341 339 344 343 339
218 275 270 73 131 179 286 282 267 258 250 231 209 217 215 202 171 173 171 170 174 173 171 170 172 168 165 167 179 114 118 113 114 134 122 86 38 19 1 349 340 330 331 336 344 353 348 344 349
217 217 245 227 207 213 297 282 251 256 232 235 232 204 205 193 179 177 177 178 175 179 176 176 172 167 165 161 115 90 68 68 147 166 81 81 63 30 12 347 338 330 332 345 341 2 359 345 348
222 339 94 88 39 267 238 284 264 258 264 217 231 225 198 189 179 178 177 182 178 181 174 172 170 161 161 146 143 158 173 167 113 106 100 80 85 49 25 350 340 337 335 344 338 344 341 331 344
159 113 107 104 237 336 215 348 264 157 258 56 66 232 227 193 179 178 179 180 179 173 173 171 159 151 147 148 164 162 140 107 118 118 126 96 80 68 39 352 343 347 343 338 330 329 331 321 334
146 104 87 90 48 3 210 162 273 217 190 124 128 55 323 164 174 157 163 162 171 165 157 159 157 152 144 150 168 159 144 138 137 118 84 65 74 55 39 354 350 347 340 340 333 330 337 346 337
225 132 355 346 16 222 50 11 250 288 296 175 181 168 169 168 162 152 153 164 168 166 163 163 158 152 144 151 157 149 131 134 125 120 110 78 45 44 14 357 352 339 337 342 330 338 340 348 339
197 167 167 208 200 242 69 230 250 218 80 80 111 133 160 167 169 174 162 163 170 169 163 162 154 147 147 147 157 138 128 122 115 106 115 104 76 61 352 349 351 345 343 341 333 334 346 343 338
176 192 141 96 63 60 224 265 300 295 206 187 195 173 180 182 174 175 169 160 164 160 166 163 153 146 151 147 140 135 131 127 129 126 116 110 92 76 3 8 360 348 348 350 339 340 343 339 335
149 202 88 346 207 256 271 252 239 198 180 195 215 209 168 156 163 172 172 164 159 157 157 155 155 152 153 147 142 143 139 127 127 129 120 109 94 59 36 15 0 0 353 345 341 343 345 343 340
161 200 251 141 173 194 243 251 224 202 185 180 119 166 165 165 172 179 169 161 148 148 158 155 157 152 157 150 144 140 136 131 133 127 124 120 102 61 46 13 13 14 350 332 351 349 356 344 347
276 199 166 143 233 234 139 267 36 111 111 79 91 123 122 157 170 168 162 155 154 154 159 161 163 163 161 150 145 143 141 141 136 133 131 116 99 70 45 20 32 17 345 331 7 357 351 348 355